Waco, TX

8:55 AM CDT on April 29, 2017 (GMT -0500)
Waco Regional

Weather History for KACT - November, 2014

Change the Weather History Date:

Tuesday, November 11, 2014

  Actual Average Record
Temperature  
Mean Temperature 52 °F 59 °F  
Max Temperature 65 °F 70 °F 88 °F (1980)
Min Temperature 39 °F 48 °F 19 °F (1950)
Degree Days  
Heating Degree Days 13 7  
Month to date heating degree days 79 64  
Since 1 July heating degree days 91 131  
Cooling Degree Days 0 1  
Month to date cooling degree days 1 23  
Year to date cooling degree days 2744 2779  
Growing Degree Days 2 (Base 50)    
Moisture  
Dew Point 35 °F    
Average Humidity 68    
Maximum Humidity 90    
Minimum Humidity 46    
Precipitation  
Precipitation 0.00 in 0.10 in 1.40 in (1920)
Month to date precipitation 1.83 1.14  
Year to date precipitation 28.70 30.26  
Snow  
Snow 0.00 in 0.00 in T in (1907)
Month to date snowfall 0.0 0.0  
Since 1 July snowfall 0.0 0.0  
Since 1 September snowfall 0.0 0.0  
Snow Depth 0.00 in    
Sea Level Pressure  
Sea Level Pressure 30.06 in    
Wind  
Wind Speed 16 mph (NNW)    
Max Wind Speed 29 mph    
Max Gust Speed 37 mph    
Visibility 10 miles    
Events      
T = Trace of Precipitation, MM = Missing Value Source: NWS Daily Summary

Daily Weather History Graph

Daily Weather History Graph

Search for Another Location

Airport or City:

Trip Planner

Search our weather history database for the weather conditions in past years. The results will help you decide how hot, cold, wet, or windy it might be!

Date:

Astronomy

Nov. 11, 2014 Rise Set
Actual Time 6:53 AM CST 5:32 PM CST
Civil Twilight 6:27 AM CST 5:57 PM CST
Nautical Twilight 5:58 AM CST 6:26 PM CST
Astronomical Twilight 5:29 AM CST 6:55 PM CST
Moon 9:56 PM CST (11/11) 11:00 AM CST (11/11)
Length of Visible Light 11h 29m
Length of Day
10h 38m
Waning Gibbous, 76% of the Moon is Illuminated
Nov 11
Waning Gibbous
Nov 14
Last Quarter
Nov 22
New
Nov 29
First Quarter
Dec 6
Full

Hourly Weather History & Observations

Time (CST) Temp. Windchill Dew Point Humidity Pressure Visibility Wind Dir Wind Speed Gust Speed Precip Events Conditions
12:51 AM 64.9 °F - 61.0 °F 87% 29.73 in 10.0 mi South 12.7 mph - N/A   Clear
1:51 AM 64.0 °F - 60.1 °F 87% 29.73 in 10.0 mi South 12.7 mph - N/A   Clear
2:51 AM 63.0 °F - 59.0 °F 87% 29.79 in 10.0 mi NW 17.3 mph 28.8 mph N/A   Scattered Clouds
3:05 AM 64.0 °F - 59.0 °F 84% 29.82 in 10.0 mi WNW 9.2 mph - N/A   Mostly Cloudy
3:32 AM 64.0 °F - 57.0 °F 78% 29.82 in 10.0 mi WNW 4.6 mph - N/A   Mostly Cloudy
3:51 AM 55.9 °F - 45.0 °F 67% 29.84 in 10.0 mi North 21.9 mph 32.2 mph N/A   Scattered Clouds
4:51 AM 46.9 °F - 34.0 °F 61% 29.91 in 10.0 mi NW 20.7 mph 28.8 mph N/A   Clear
5:51 AM 44.1 °F 35.9 °F 32.0 °F 63% 29.97 in 10.0 mi North 19.6 mph 29.9 mph N/A   Clear
6:51 AM 43.0 °F 34.2 °F 30.9 °F 62% 30.02 in 10.0 mi NNW 20.7 mph 26.5 mph N/A   Overcast
7:51 AM 42.1 °F 31.9 °F 28.9 °F 60% 30.07 in 10.0 mi North 26.5 mph 34.5 mph N/A   Overcast
8:51 AM 42.1 °F 33.1 °F 28.9 °F 60% 30.11 in 10.0 mi North 20.7 mph 33.4 mph N/A   Mostly Cloudy
9:51 AM 45.0 °F 36.2 °F 28.9 °F 53% 30.14 in 10.0 mi NNW 24.2 mph 33.4 mph N/A   Clear
10:51 AM 46.9 °F - 28.9 °F 50% 30.15 in 10.0 mi NNW 17.3 mph 26.5 mph N/A   Clear
11:51 AM 48.0 °F - 28.0 °F 46% 30.14 in 10.0 mi NNW 17.3 mph 25.3 mph N/A   Clear
12:51 PM 48.0 °F - 28.0 °F 46% 30.12 in 10.0 mi NW 18.4 mph 26.5 mph N/A   Clear
1:51 PM 48.0 °F - 28.9 °F 48% 30.12 in 10.0 mi NNW 18.4 mph - N/A   Clear
2:51 PM 48.0 °F - 28.9 °F 48% 30.12 in 10.0 mi NNW 17.3 mph 25.3 mph N/A   Clear
3:51 PM 46.9 °F - 28.0 °F 48% 30.13 in 10.0 mi NNW 18.4 mph - N/A   Mostly Cloudy
4:51 PM 46.9 °F - 28.0 °F 48% 30.14 in 10.0 mi North 17.3 mph - N/A   Overcast
5:51 PM 45.0 °F 40.6 °F 28.9 °F 53% 30.15 in 10.0 mi North 8.1 mph - N/A   Clear
6:51 PM 44.1 °F 38.6 °F 28.9 °F 55% 30.17 in 10.0 mi North 10.4 mph - N/A   Clear
7:51 PM 43.0 °F 38.2 °F 28.0 °F 56% 30.19 in 10.0 mi North 8.1 mph - N/A   Clear
8:51 PM 42.1 °F 36.6 °F 28.9 °F 60% 30.20 in 10.0 mi North 9.2 mph - N/A   Clear
9:51 PM 39.9 °F 34.5 °F 28.9 °F 65% 30.22 in 10.0 mi NNW 8.1 mph - N/A   Clear
10:51 PM 39.0 °F 32.3 °F 28.0 °F 65% 30.24 in 10.0 mi NNW 10.4 mph - N/A   Clear
11:51 PM 39.0 °F 32.3 °F 27.0 °F 62% 30.25 in 10.0 mi NNW 10.4 mph - N/A   Clear